Time,TemperatureF,DewpointF,PressureIn,WindDirection,WindDirectionDegrees,WindSpeedMPH,WindSpeedGustMPH,Humidity,HourlyPrecipIn,Conditions,Clouds,dailyrainin,SoftwareType,DateUTC
2013-11-06 00:01:00,37.9,33.5,30.48,SSE,152,0.0,2.0,84,0.00,,,0.00,WeatherCatV1.10B1784,2013-11-06 05:01:00,
2013-11-06 00:06:00,38.2,34.1,30.48,SSE,152,0.0,0.0,85,0.00,,,0.00,WeatherCatV1.10B1784,2013-11-06 05:06:00,
2013-11-06 00:11:00,38.4,34.3,30.47,SSE,152,0.0,1.0,85,0.00,,,0.00,WeatherCatV1.10B1784,2013-11-06 05:11:00,
2013-11-06 00:16:00,38.6,34.5,30.47,SSE,152,0.0,0.0,85,0.00,,,0.00,WeatherCatV1.10B1784,2013-11-06 05:16:00,
2013-11-06 00:21:00,38.7,34.3,30.47,SSE,152,0.0,0.0,84,0.00,,,0.00,WeatherCatV1.10B1784,2013-11-06 05:21:00,
2013-11-06 00:26:00,38.4,34.0,30.47,SSE,152,0.0,0.0,84,0.00,,,0.00,WeatherCatV1.10B1784,2013-11-06 05:26:00,
2013-11-06 00:31:00,38.4,34.0,30.47,SSE,152,0.0,0.0,84,0.00,,,0.00,WeatherCatV1.10B1784,2013-11-06 05:31:00,
2013-11-06 00:36:00,38.2,33.8,30.47,SSE,152,0.0,0.0,84,0.00,,,0.00,WeatherCatV1.10B1784,2013-11-06 05:36:00,
2013-11-06 00:41:00,38.1,33.7,30.47,SSE,152,0.0,0.0,84,0.00,,,0.00,WeatherCatV1.10B1784,2013-11-06 05:41:00,
2013-11-06 00:46:00,38.1,34.0,30.47,SSE,152,0.0,0.0,85,0.00,,,0.00,WeatherCatV1.10B1784,2013-11-06 05:46:00,
2013-11-06 00:51:00,38.4,34.6,30.47,SSE,152,0.0,2.0,86,0.00,,,0.00,WeatherCatV1.10B1784,2013-11-06 05:51:00,
2013-11-06 00:56:00,38.9,35.1,30.47,SSE,152,0.0,0.0,86,0.00,,,0.00,WeatherCatV1.10B1784,2013-11-06 05:56:00,
2013-11-06 01:01:00,39.5,35.4,30.46,SSE,152,0.0,1.0,85,0.00,,,0.00,WeatherCatV1.10B1784,2013-11-06 06:01:00,
2013-11-06 01:06:00,39.5,35.1,30.46,SSE,152,0.0,0.0,84,0.00,,,0.00,WeatherCatV1.10B1784,2013-11-06 06:06:00,
2013-11-06 01:11:00,39.5,35.4,30.46,SSE,152,0.0,1.0,85,0.00,,,0.00,WeatherCatV1.10B1784,2013-11-06 06:11:00,
2013-11-06 01:16:00,39.8,35.7,30.46,SSE,152,0.0,0.0,85,0.00,,,0.00,WeatherCatV1.10B1784,2013-11-06 06:16:00,
2013-11-06 01:21:00,40.1,36.0,30.45,South,191,3.0,3.0,85,0.00,,,0.00,WeatherCatV1.10B1784,2013-11-06 06:21:00,
2013-11-06 01:26:00,40.9,36.4,30.45,WSW,257,0.0,3.0,84,0.00,,,0.00,WeatherCatV1.10B1784,2013-11-06 06:26:00,
2013-11-06 01:31:00,41.4,36.6,30.45,WSW,257,0.0,2.0,83,0.00,,,0.00,WeatherCatV1.10B1784,2013-11-06 06:31:00,
2013-11-06 01:36:00,41.8,37.0,30.45,WSW,257,0.0,1.0,83,0.00,,,0.00,WeatherCatV1.10B1784,2013-11-06 06:36:00,
2013-11-06 01:41:00,42.0,36.9,30.46,South,173,0.0,0.0,82,0.00,,,0.00,WeatherCatV1.10B1784,2013-11-06 06:41:00,
2013-11-06 01:46:00,42.2,37.1,30.46,South,191,1.0,1.0,82,0.00,,,0.00,WeatherCatV1.10B1784,2013-11-06 06:46:00,
2013-11-06 01:51:00,42.4,37.0,30.46,SW,234,0.0,0.0,81,0.00,,,0.00,WeatherCatV1.10B1784,2013-11-06 06:51:00,
2013-11-06 01:56:00,42.4,37.0,30.47,SW,234,0.0,3.0,81,0.00,,,0.00,WeatherCatV1.10B1784,2013-11-06 06:56:00,
2013-11-06 02:01:00,42.5,37.1,30.46,South,179,0.0,0.0,81,0.00,,,0.00,WeatherCatV1.10B1784,2013-11-06 07:01:00,
2013-11-06 02:06:00,42.6,37.2,30.46,SW,227,0.0,4.0,81,0.00,,,0.00,WeatherCatV1.10B1784,2013-11-06 07:06:00,
2013-11-06 02:11:00,42.7,37.3,30.45,SSE,167,0.0,4.0,81,0.00,,,0.00,WeatherCatV1.10B1784,2013-11-06 07:11:00,
2013-11-06 02:16:00,42.7,37.3,30.45,South,169,0.0,0.0,81,0.00,,,0.00,WeatherCatV1.10B1784,2013-11-06 07:16:00,
2013-11-06 02:21:00,42.6,37.2,30.45,South,169,2.0,3.0,81,0.00,,,0.00,WeatherCatV1.10B1784,2013-11-06 07:21:00,
2013-11-06 02:26:00,42.6,37.2,30.45,SW,234,4.0,7.0,81,0.00,,,0.00,WeatherCatV1.10B1784,2013-11-06 07:26:00,
2013-11-06 02:31:00,42.7,37.0,30.45,SW,234,0.0,0.0,80,0.00,,,0.00,WeatherCatV1.10B1784,2013-11-06 07:31:00,
2013-11-06 02:36:00,42.7,37.3,30.44,South,181,0.0,3.0,81,0.00,,,0.00,WeatherCatV1.10B1784,2013-11-06 07:36:00,
2013-11-06 02:41:00,42.7,37.3,30.44,SW,234,0.0,0.0,81,0.00,,,0.00,WeatherCatV1.10B1784,2013-11-06 07:41:00,
2013-11-06 02:46:00,42.6,37.2,30.44,SW,234,2.0,3.0,81,0.00,,,0.00,WeatherCatV1.10B1784,2013-11-06 07:46:00,
2013-11-06 02:51:00,42.6,37.2,30.44,SW,234,0.0,0.0,81,0.00,,,0.00,WeatherCatV1.10B1784,2013-11-06 07:51:00,
2013-11-06 02:56:00,42.4,37.0,30.44,SW,234,0.0,0.0,81,0.00,,,0.00,WeatherCatV1.10B1784,2013-11-06 07:56:00,
2013-11-06 03:01:00,42.1,36.7,30.43,SW,234,0.0,0.0,81,0.00,,,0.00,WeatherCatV1.10B1784,2013-11-06 08:01:00,
2013-11-06 03:06:00,41.7,36.6,30.43,SW,234,0.0,0.0,82,0.00,,,0.00,WeatherCatV1.10B1784,2013-11-06 08:06:00,
2013-11-06 03:11:00,41.5,36.7,30.43,SW,234,0.0,0.0,83,0.00,,,0.00,WeatherCatV1.10B1784,2013-11-06 08:11:00,
2013-11-06 03:16:00,41.4,36.6,30.43,SW,234,0.0,0.0,83,0.00,,,0.00,WeatherCatV1.10B1784,2013-11-06 08:16:00,
2013-11-06 03:21:00,41.3,36.8,30.43,SW,234,0.0,0.0,84,0.00,,,0.00,WeatherCatV1.10B1784,2013-11-06 08:21:00,
2013-11-06 03:26:00,41.3,36.8,30.43,SW,234,0.0,0.0,84,0.00,,,0.00,WeatherCatV1.10B1784,2013-11-06 08:26:00,
2013-11-06 03:31:00,41.1,36.6,30.42,SW,234,3.0,3.0,84,0.00,,,0.00,WeatherCatV1.10B1784,2013-11-06 08:31:00,
2013-11-06 03:36:00,41.1,36.6,30.42,SW,234,0.0,3.0,84,0.00,,,0.00,WeatherCatV1.10B1784,2013-11-06 08:36:00,
2013-11-06 03:41:00,41.2,36.7,30.43,SW,234,0.0,0.0,84,0.00,,,0.00,WeatherCatV1.10B1784,2013-11-06 08:41:00,
2013-11-06 03:46:00,41.3,36.8,30.43,SW,234,0.0,0.0,84,0.00,,,0.00,WeatherCatV1.10B1784,2013-11-06 08:46:00,
2013-11-06 03:51:00,41.3,36.8,30.43,SW,234,0.0,0.0,84,0.00,,,0.00,WeatherCatV1.10B1784,2013-11-06 08:51:00,
2013-11-06 03:56:00,41.3,36.8,30.43,SW,234,0.0,0.0,84,0.00,,,0.00,WeatherCatV1.10B1784,2013-11-06 08:56:00,
2013-11-06 04:01:00,41.4,36.9,30.43,SW,234,0.0,1.0,84,0.00,,,0.00,WeatherCatV1.10B1784,2013-11-06 09:01:00,
2013-11-06 04:06:00,41.5,37.0,30.43,SW,234,0.0,0.0,84,0.00,,,0.00,WeatherCatV1.10B1784,2013-11-06 09:06:00,
2013-11-06 04:11:00,41.4,36.9,30.42,SW,234,0.0,0.0,84,0.00,,,0.00,WeatherCatV1.10B1784,2013-11-06 09:11:00,
2013-11-06 04:16:00,41.4,36.9,30.42,SW,234,0.0,3.0,84,0.00,,,0.00,WeatherCatV1.10B1784,2013-11-06 09:16:00,
2013-11-06 04:21:00,41.4,36.9,30.42,SW,234,0.0,0.0,84,0.00,,,0.00,WeatherCatV1.10B1784,2013-11-06 09:21:00,
2013-11-06 04:26:00,41.4,36.9,30.42,SW,234,0.0,0.0,84,0.00,,,0.00,WeatherCatV1.10B1784,2013-11-06 09:26:00,
2013-11-06 04:31:00,41.4,36.9,30.42,SW,234,0.0,1.0,84,0.00,,,0.00,WeatherCatV1.10B1784,2013-11-06 09:31:00,
2013-11-06 04:36:00,41.3,36.8,30.42,SW,234,0.0,0.0,84,0.00,,,0.00,WeatherCatV1.10B1784,2013-11-06 09:36:00,
2013-11-06 04:41:00,41.2,37.0,30.42,SW,234,0.0,0.0,85,0.00,,,0.00,WeatherCatV1.10B1784,2013-11-06 09:41:00,
2013-11-06 04:46:00,41.2,37.0,30.42,SW,234,0.0,0.0,85,0.00,,,0.00,WeatherCatV1.10B1784,2013-11-06 09:46:00,
2013-11-06 04:51:00,41.1,36.9,30.42,SW,234,0.0,0.0,85,0.00,,,0.00,WeatherCatV1.10B1784,2013-11-06 09:51:00,
2013-11-06 04:56:00,41.0,36.8,30.42,SW,234,0.0,0.0,85,0.00,,,0.00,WeatherCatV1.10B1784,2013-11-06 09:56:00,
2013-11-06 05:01:00,40.9,36.7,30.42,SW,234,0.0,0.0,85,0.00,,,0.00,WeatherCatV1.10B1784,2013-11-06 10:01:00,
2013-11-06 05:06:00,40.9,36.7,30.42,SW,234,0.0,0.0,85,0.00,,,0.00,WeatherCatV1.10B1784,2013-11-06 10:06:00,
2013-11-06 05:11:00,40.9,36.7,30.42,SW,234,0.0,0.0,85,0.00,,,0.00,WeatherCatV1.10B1784,2013-11-06 10:11:00,
2013-11-06 05:16:00,40.9,36.7,30.42,SW,234,0.0,0.0,85,0.00,,,0.00,WeatherCatV1.10B1784,2013-11-06 10:16:00,
2013-11-06 05:21:00,40.9,36.7,30.42,SW,234,0.0,0.0,85,0.00,,,0.00,WeatherCatV1.10B1784,2013-11-06 10:21:00,
2013-11-06 05:26:00,40.8,36.6,30.42,SW,234,0.0,0.0,85,0.00,,,0.00,WeatherCatV1.10B1784,2013-11-06 10:26:00,
2013-11-06 05:31:00,40.8,36.6,30.42,SW,234,0.0,0.0,85,0.00,,,0.00,WeatherCatV1.10B1784,2013-11-06 10:31:00,
2013-11-06 05:36:00,40.7,36.5,30.41,SW,234,0.0,0.0,85,0.00,,,0.00,WeatherCatV1.10B1784,2013-11-06 10:36:00,
2013-11-06 05:41:00,40.6,36.7,30.41,SW,234,0.0,0.0,86,0.00,,,0.00,WeatherCatV1.10B1784,2013-11-06 10:41:00,
2013-11-06 05:46:00,40.6,36.7,30.41,SW,234,0.0,0.0,86,0.00,,,0.00,WeatherCatV1.10B1784,2013-11-06 10:46:00,
2013-11-06 05:51:00,40.5,36.6,30.41,SW,234,0.0,0.0,86,0.00,,,0.00,WeatherCatV1.10B1784,2013-11-06 10:51:00,
2013-11-06 05:56:00,40.5,36.6,30.42,SW,234,0.0,0.0,86,0.00,,,0.00,WeatherCatV1.10B1784,2013-11-06 10:56:00,
2013-11-06 06:01:00,40.4,36.5,30.41,SW,234,0.0,0.0,86,0.00,,,0.00,WeatherCatV1.10B1784,2013-11-06 11:01:00,
2013-11-06 06:06:00,40.4,36.5,30.41,SW,234,0.0,0.0,86,0.00,,,0.00,WeatherCatV1.10B1784,2013-11-06 11:06:00,
2013-11-06 06:11:00,40.3,36.5,30.41,SW,234,0.0,0.0,86,0.00,,,0.00,WeatherCatV1.10B1784,2013-11-06 11:11:00,
2013-11-06 06:16:00,40.2,36.4,30.41,SW,234,0.0,0.0,86,0.00,,,0.00,WeatherCatV1.10B1784,2013-11-06 11:16:00,
2013-11-06 06:21:00,40.1,36.3,30.41,SW,234,0.0,0.0,86,0.00,,,0.00,WeatherCatV1.10B1784,2013-11-06 11:21:00,
2013-11-06 06:26:00,40.0,36.2,30.41,SW,234,0.0,0.0,86,0.00,,,0.00,WeatherCatV1.10B1784,2013-11-06 11:26:00,
2013-11-06 06:31:00,39.9,36.1,30.41,SW,234,0.0,0.0,86,0.00,,,0.00,WeatherCatV1.10B1784,2013-11-06 11:31:00,
2013-11-06 06:36:00,39.7,35.9,30.40,SW,234,0.0,0.0,86,0.00,,,0.00,WeatherCatV1.10B1784,2013-11-06 11:36:00,
2013-11-06 06:41:00,39.5,35.7,30.40,SW,234,0.0,0.0,86,0.00,,,0.00,WeatherCatV1.10B1784,2013-11-06 11:41:00,
2013-11-06 06:46:00,39.5,36.2,30.39,SW,234,0.0,0.0,88,0.00,,,0.00,WeatherCatV1.10B1784,2013-11-06 11:46:00,
2013-11-06 06:51:00,40.2,37.2,30.39,SW,234,0.0,0.0,89,0.00,,,0.00,WeatherCatV1.10B1784,2013-11-06 11:51:00,
2013-11-06 06:56:00,40.7,37.7,30.39,SW,234,2.0,2.0,89,0.00,,,0.00,WeatherCatV1.10B1784,2013-11-06 11:56:00,
2013-11-06 07:01:00,41.3,38.0,30.39,SW,234,0.0,0.0,88,0.00,,,0.00,WeatherCatV1.10B1784,2013-11-06 12:01:00,
2013-11-06 07:06:00,41.5,38.2,30.39,SW,234,0.0,3.0,88,0.00,,,0.00,WeatherCatV1.10B1784,2013-11-06 12:06:00,
2013-11-06 07:11:00,41.9,38.6,30.39,SW,234,0.0,0.0,88,0.00,,,0.00,WeatherCatV1.10B1784,2013-11-06 12:11:00,
2013-11-06 07:16:00,42.2,38.9,30.39,SW,234,0.0,3.0,88,0.00,,,0.00,WeatherCatV1.10B1784,2013-11-06 12:16:00,
2013-11-06 07:21:00,42.6,39.3,30.38,SW,234,0.0,1.0,88,0.00,,,0.00,WeatherCatV1.10B1784,2013-11-06 12:21:00,
2013-11-06 07:26:00,43.0,39.4,30.38,SW,234,0.0,0.0,87,0.00,,,0.00,WeatherCatV1.10B1784,2013-11-06 12:26:00,
2013-11-06 07:31:00,43.4,39.8,30.38,SE,132,0.0,0.0,87,0.00,,,0.00,WeatherCatV1.10B1784,2013-11-06 12:31:00,
2013-11-06 07:36:00,43.7,40.1,30.38,SE,132,0.0,2.0,87,0.00,,,0.00,WeatherCatV1.10B1784,2013-11-06 12:36:00,
2013-11-06 07:41:00,44.1,40.2,30.38,SE,132,0.0,0.0,86,0.00,,,0.00,WeatherCatV1.10B1784,2013-11-06 12:41:00,
2013-11-06 07:46:00,44.4,40.5,30.38,SE,132,0.0,2.0,86,0.00,,,0.00,WeatherCatV1.10B1784,2013-11-06 12:46:00,
2013-11-06 07:51:00,44.7,40.5,30.38,SE,132,0.0,0.0,85,0.00,,,0.00,WeatherCatV1.10B1784,2013-11-06 12:51:00,
2013-11-06 07:56:00,45.0,40.8,30.39,SE,132,1.0,3.0,85,0.00,,,0.00,WeatherCatV1.10B1784,2013-11-06 12:56:00,
2013-11-06 08:01:00,45.3,41.1,30.38,SE,132,0.0,3.0,85,0.00,,,0.00,WeatherCatV1.10B1784,2013-11-06 13:01:00,
2013-11-06 08:06:00,45.7,41.1,30.38,SW,222,0.0,6.0,84,0.00,,,0.00,WeatherCatV1.10B1784,2013-11-06 13:06:00,
2013-11-06 08:11:00,46.1,41.2,30.38,SSE,159,0.0,2.0,83,0.00,,,0.00,WeatherCatV1.10B1784,2013-11-06 13:11:00,
2013-11-06 08:16:00,46.6,41.4,30.38,SSE,163,0.0,2.0,82,0.00,,,0.00,WeatherCatV1.10B1784,2013-11-06 13:16:00,
2013-11-06 08:21:00,46.9,41.7,30.37,WSW,248,5.0,7.0,82,0.00,,,0.00,WeatherCatV1.10B1784,2013-11-06 13:21:00,
2013-11-06 08:26:00,47.2,42.0,30.37,SSE,158,3.0,3.0,82,0.00,,,0.00,WeatherCatV1.10B1784,2013-11-06 13:26:00,
2013-11-06 08:31:00,47.4,41.9,30.37,South,173,0.0,3.0,81,0.00,,,0.00,WeatherCatV1.10B1784,2013-11-06 13:31:00,
2013-11-06 08:36:00,47.6,42.1,30.36,South,174,0.0,0.0,81,0.00,,,0.00,WeatherCatV1.10B1784,2013-11-06 13:36:00,
2013-11-06 08:41:00,47.7,41.8,30.36,WSW,250,0.0,5.0,80,0.00,,,0.00,WeatherCatV1.10B1784,2013-11-06 13:41:00,
2013-11-06 08:46:00,47.8,41.9,30.36,SSE,150,1.0,5.0,80,0.00,,,0.00,WeatherCatV1.10B1784,2013-11-06 13:46:00,
2013-11-06 08:51:00,47.9,42.0,30.36,SSE,153,1.0,4.0,80,0.00,,,0.00,WeatherCatV1.10B1784,2013-11-06 13:51:00,
2013-11-06 08:56:00,48.0,42.1,30.36,SSE,152,0.0,4.0,80,0.00,,,0.00,WeatherCatV1.10B1784,2013-11-06 13:56:00,
2013-11-06 09:01:00,48.6,42.7,30.36,SE,135,2.0,4.0,80,0.00,,,0.00,WeatherCatV1.10B1784,2013-11-06 14:01:00,
2013-11-06 09:06:00,49.1,42.9,30.35,SSE,154,1.0,3.0,79,0.00,,,0.00,WeatherCatV1.10B1784,2013-11-06 14:06:00,
2013-11-06 09:11:00,49.7,43.1,30.35,SSE,154,6.0,8.0,78,0.00,,,0.00,WeatherCatV1.10B1784,2013-11-06 14:11:00,
2013-11-06 09:16:00,50.0,43.4,30.35,South,186,2.0,2.0,78,0.00,,,0.00,WeatherCatV1.10B1784,2013-11-06 14:16:00,
2013-11-06 09:21:00,50.5,43.6,30.35,WSW,257,5.0,9.0,77,0.00,,,0.00,WeatherCatV1.10B1784,2013-11-06 14:21:00,
2013-11-06 09:26:00,50.8,43.5,30.34,ESE,102,2.0,9.0,76,0.00,,,0.00,WeatherCatV1.10B1784,2013-11-06 14:26:00,
2013-11-06 09:31:00,51.2,43.9,30.34,SW,235,6.0,10.0,76,0.00,,,0.00,WeatherCatV1.10B1784,2013-11-06 14:31:00,
2013-11-06 09:36:00,51.4,43.7,30.34,WSW,244,2.0,5.0,75,0.00,,,0.00,WeatherCatV1.10B1784,2013-11-06 14:36:00,
2013-11-06 09:41:00,51.6,43.9,30.34,WSW,244,3.0,8.0,75,0.00,,,0.00,WeatherCatV1.10B1784,2013-11-06 14:41:00,
2013-11-06 09:46:00,51.9,43.9,30.33,WSW,257,6.0,9.0,74,0.00,,,0.00,WeatherCatV1.10B1784,2013-11-06 14:46:00,
2013-11-06 09:51:00,52.1,44.1,30.33,South,185,0.0,1.0,74,0.00,,,0.00,WeatherCatV1.10B1784,2013-11-06 14:51:00,
2013-11-06 09:56:00,52.4,44.0,30.33,SSE,150,8.0,8.0,73,0.00,,,0.00,WeatherCatV1.10B1784,2013-11-06 14:56:00,
2013-11-06 10:01:00,52.8,44.0,30.33,South,178,4.0,11.0,72,0.00,,,0.00,WeatherCatV1.10B1784,2013-11-06 15:01:00,
2013-11-06 10:06:00,52.5,43.7,30.32,WSW,250,3.0,14.0,72,0.00,,,0.00,WeatherCatV1.10B1784,2013-11-06 15:06:00,
2013-11-06 10:11:00,52.3,43.9,30.32,SE,140,0.0,7.0,73,0.00,,,0.00,WeatherCatV1.10B1784,2013-11-06 15:11:00,
2013-11-06 10:16:00,52.6,43.8,30.32,ESE,116,3.0,10.0,72,0.00,,,0.00,WeatherCatV1.10B1784,2013-11-06 15:16:00,
2013-11-06 10:21:00,52.7,43.6,30.32,SW,219,7.0,13.0,71,0.00,,,0.00,WeatherCatV1.10B1784,2013-11-06 15:21:00,
2013-11-06 10:26:00,52.7,43.9,30.32,SW,223,4.0,10.0,72,0.00,,,0.00,WeatherCatV1.10B1784,2013-11-06 15:26:00,
2013-11-06 10:31:00,52.9,44.1,30.32,SW,235,0.0,8.0,72,0.00,,,0.00,WeatherCatV1.10B1784,2013-11-06 15:31:00,
2013-11-06 10:36:00,53.3,44.5,30.32,SSE,154,0.0,8.0,72,0.00,,,0.00,WeatherCatV1.10B1784,2013-11-06 15:36:00,
2013-11-06 10:41:00,53.6,44.4,30.32,South,183,4.0,12.0,71,0.00,,,0.00,WeatherCatV1.10B1784,2013-11-06 15:41:00,
2013-11-06 10:46:00,53.6,44.1,30.31,West,262,6.0,8.0,70,0.00,,,0.00,WeatherCatV1.10B1784,2013-11-06 15:46:00,
2013-11-06 10:51:00,53.5,44.3,30.31,SSE,152,0.0,13.0,71,0.00,,,0.00,WeatherCatV1.10B1784,2013-11-06 15:51:00,
2013-11-06 10:56:00,53.9,44.3,30.30,SW,217,4.0,12.0,70,0.00,,,0.00,WeatherCatV1.10B1784,2013-11-06 15:56:00,
2013-11-06 11:01:00,54.2,44.6,30.29,SSE,167,6.0,12.0,70,0.00,,,0.00,WeatherCatV1.10B1784,2013-11-06 16:01:00,
2013-11-06 11:06:00,54.6,44.6,30.29,WSW,257,4.0,5.0,69,0.00,,,0.00,WeatherCatV1.10B1784,2013-11-06 16:06:00,
2013-11-06 11:11:00,54.9,44.9,30.29,SE,138,1.0,2.0,69,0.00,,,0.00,WeatherCatV1.10B1784,2013-11-06 16:11:00,
2013-11-06 11:16:00,55.2,44.8,30.29,South,171,8.0,8.0,68,0.00,,,0.00,WeatherCatV1.10B1784,2013-11-06 16:16:00,
2013-11-06 11:21:00,55.4,44.6,30.28,SSE,156,6.0,9.0,67,0.00,,,0.00,WeatherCatV1.10B1784,2013-11-06 16:21:00,
2013-11-06 11:26:00,55.0,44.2,30.28,SSE,161,2.0,11.0,67,0.00,,,0.00,WeatherCatV1.10B1784,2013-11-06 16:26:00,
2013-11-06 11:31:00,55.1,44.3,30.28,WSW,240,1.0,9.0,67,0.00,,,0.00,WeatherCatV1.10B1784,2013-11-06 16:31:00,
2013-11-06 11:36:00,55.2,44.4,30.28,SW,226,2.0,10.0,67,0.00,,,0.00,WeatherCatV1.10B1784,2013-11-06 16:36:00,
2013-11-06 11:41:00,55.4,44.2,30.27,SW,230,4.0,9.0,66,0.00,,,0.00,WeatherCatV1.10B1784,2013-11-06 16:41:00,
2013-11-06 11:46:00,55.5,44.3,30.27,WSW,257,11.0,11.0,66,0.00,,,0.00,WeatherCatV1.10B1784,2013-11-06 16:46:00,
2013-11-06 11:51:00,56.0,44.4,30.27,SE,142,7.0,10.0,65,0.00,,,0.00,WeatherCatV1.10B1784,2013-11-06 16:51:00,
2013-11-06 11:56:00,56.9,44.8,30.26,South,169,4.0,9.0,64,0.00,,,0.00,WeatherCatV1.10B1784,2013-11-06 16:56:00,
2013-11-06 12:01:00,57.5,44.6,30.26,South,183,13.0,14.0,62,0.00,,,0.00,WeatherCatV1.10B1784,2013-11-06 17:01:00,
2013-11-06 12:06:00,57.7,44.8,30.25,SSE,160,7.0,10.0,62,0.00,,,0.00,WeatherCatV1.10B1784,2013-11-06 17:06:00,
2013-11-06 12:11:00,57.8,44.0,30.25,SW,236,7.0,15.0,60,0.00,,,0.00,WeatherCatV1.10B1784,2013-11-06 17:11:00,
2013-11-06 12:16:00,57.8,44.0,30.24,SSE,159,5.0,13.0,60,0.00,,,0.00,WeatherCatV1.10B1784,2013-11-06 17:16:00,
2013-11-06 12:21:00,57.7,43.9,30.24,SSE,159,6.0,10.0,60,0.00,,,0.00,WeatherCatV1.10B1784,2013-11-06 17:21:00,
2013-11-06 12:26:00,57.7,43.9,30.24,WSW,249,3.0,5.0,60,0.00,,,0.00,WeatherCatV1.10B1784,2013-11-06 17:26:00,
2013-11-06 12:31:00,58.2,44.4,30.23,South,177,7.0,15.0,60,0.00,,,0.00,WeatherCatV1.10B1784,2013-11-06 17:31:00,
2013-11-06 12:36:00,58.2,44.4,30.23,South,177,11.0,12.0,60,0.00,,,0.00,WeatherCatV1.10B1784,2013-11-06 17:36:00,
2013-11-06 12:41:00,58.4,44.6,30.23,WSW,247,11.0,14.0,60,0.00,,,0.00,WeatherCatV1.10B1784,2013-11-06 17:41:00,
2013-11-06 12:46:00,58.4,44.1,30.24,SSE,148,0.0,5.0,59,0.00,,,0.00,WeatherCatV1.10B1784,2013-11-06 17:46:00,
2013-11-06 12:51:00,58.3,44.5,30.23,West,267,0.0,12.0,60,0.00,,,0.00,WeatherCatV1.10B1784,2013-11-06 17:51:00,
2013-11-06 12:56:00,58.7,44.4,30.23,West,262,3.0,4.0,59,0.00,,,0.00,WeatherCatV1.10B1784,2013-11-06 17:56:00,
2013-11-06 13:01:00,58.5,44.2,30.22,WSW,257,7.0,11.0,59,0.00,,,0.00,WeatherCatV1.10B1784,2013-11-06 18:01:00,
2013-11-06 13:06:00,58.1,43.8,30.22,SW,224,0.0,7.0,59,0.00,,,0.00,WeatherCatV1.10B1784,2013-11-06 18:06:00,
2013-11-06 13:11:00,58.6,44.3,30.21,SSE,166,10.0,15.0,59,0.00,,,0.00,WeatherCatV1.10B1784,2013-11-06 18:11:00,
2013-11-06 13:16:00,58.9,43.7,30.21,SSE,163,5.0,9.0,57,0.00,,,0.00,WeatherCatV1.10B1784,2013-11-06 18:16:00,
2013-11-06 13:21:00,59.2,44.0,30.20,SSE,149,0.0,8.0,57,0.00,,,0.00,WeatherCatV1.10B1784,2013-11-06 18:21:00,
2013-11-06 13:26:00,59.5,43.8,30.20,South,180,0.0,1.0,56,0.00,,,0.00,WeatherCatV1.10B1784,2013-11-06 18:26:00,
2013-11-06 13:31:00,59.8,44.1,30.20,SW,230,8.0,10.0,56,0.00,,,0.00,WeatherCatV1.10B1784,2013-11-06 18:31:00,
2013-11-06 13:36:00,59.4,43.7,30.20,SSE,167,3.0,18.0,56,0.00,,,0.00,WeatherCatV1.10B1784,2013-11-06 18:36:00,
2013-11-06 13:41:00,59.6,43.4,30.20,South,170,10.0,13.0,55,0.00,,,0.00,WeatherCatV1.10B1784,2013-11-06 18:41:00,
2013-11-06 13:46:00,59.6,43.4,30.20,SSE,156,2.0,10.0,55,0.00,,,0.00,WeatherCatV1.10B1784,2013-11-06 18:46:00,
2013-11-06 13:51:00,59.7,43.5,30.20,South,171,3.0,10.0,55,0.00,,,0.00,WeatherCatV1.10B1784,2013-11-06 18:51:00,
2013-11-06 13:56:00,59.8,43.6,30.20,South,177,1.0,10.0,55,0.00,,,0.00,WeatherCatV1.10B1784,2013-11-06 18:56:00,
2013-11-06 14:01:00,60.0,43.8,30.19,WSW,257,0.0,9.0,55,0.00,,,0.00,WeatherCatV1.10B1784,2013-11-06 19:01:00,
2013-11-06 14:06:00,60.3,43.6,30.19,SSE,167,1.0,9.0,54,0.00,,,0.00,WeatherCatV1.10B1784,2013-11-06 19:06:00,
2013-11-06 14:11:00,60.3,43.6,30.19,SSE,151,9.0,11.0,54,0.00,,,0.00,WeatherCatV1.10B1784,2013-11-06 19:11:00,
2013-11-06 14:16:00,60.0,43.3,30.19,South,169,2.0,12.0,54,0.00,,,0.00,WeatherCatV1.10B1784,2013-11-06 19:16:00,
2013-11-06 14:21:00,59.8,43.1,30.19,WSW,248,6.0,11.0,54,0.00,,,0.00,WeatherCatV1.10B1784,2013-11-06 19:21:00,
2013-11-06 14:26:00,59.6,43.4,30.19,WSW,248,3.0,6.0,55,0.00,,,0.00,WeatherCatV1.10B1784,2013-11-06 19:26:00,
2013-11-06 14:31:00,59.5,43.3,30.18,WSW,237,2.0,8.0,55,0.00,,,0.00,WeatherCatV1.10B1784,2013-11-06 19:31:00,
2013-11-06 14:36:00,59.8,43.6,30.18,WSW,241,2.0,5.0,55,0.00,,,0.00,WeatherCatV1.10B1784,2013-11-06 19:36:00,
2013-11-06 14:41:00,59.8,43.6,30.18,WSW,240,8.0,11.0,55,0.00,,,0.00,WeatherCatV1.10B1784,2013-11-06 19:41:00,
2013-11-06 14:46:00,59.6,43.4,30.18,WSW,246,0.0,11.0,55,0.00,,,0.00,WeatherCatV1.10B1784,2013-11-06 19:46:00,
2013-11-06 14:51:00,59.5,43.8,30.18,SSW,212,4.0,12.0,56,0.00,,,0.00,WeatherCatV1.10B1784,2013-11-06 19:51:00,
2013-11-06 14:56:00,59.7,43.5,30.18,SSW,198,4.0,14.0,55,0.00,,,0.00,WeatherCatV1.10B1784,2013-11-06 19:56:00,
2013-11-06 15:01:00,59.7,44.0,30.17,SSW,207,2.0,6.0,56,0.00,,,0.00,WeatherCatV1.10B1784,2013-11-06 20:01:00,
2013-11-06 15:06:00,59.7,44.0,30.17,South,175,0.0,6.0,56,0.00,,,0.00,WeatherCatV1.10B1784,2013-11-06 20:06:00,
2013-11-06 15:11:00,59.9,44.2,30.17,WSW,250,1.0,3.0,56,0.00,,,0.00,WeatherCatV1.10B1784,2013-11-06 20:11:00,
2013-11-06 15:16:00,60.1,44.3,30.17,SSW,200,2.0,9.0,56,0.00,,,0.00,WeatherCatV1.10B1784,2013-11-06 20:16:00,
2013-11-06 15:21:00,59.9,44.2,30.17,WSW,238,1.0,8.0,56,0.00,,,0.00,WeatherCatV1.10B1784,2013-11-06 20:21:00,
2013-11-06 15:26:00,59.9,44.2,30.16,SE,125,0.0,10.0,56,0.00,,,0.00,WeatherCatV1.10B1784,2013-11-06 20:26:00,
2013-11-06 15:31:00,59.9,44.2,30.17,SSE,165,0.0,4.0,56,0.00,,,0.00,WeatherCatV1.10B1784,2013-11-06 20:31:00,
2013-11-06 15:36:00,60.0,43.8,30.17,SW,236,0.0,6.0,55,0.00,,,0.00,WeatherCatV1.10B1784,2013-11-06 20:36:00,
2013-11-06 15:41:00,59.3,43.6,30.17,WSW,240,5.0,5.0,56,0.00,,,0.00,WeatherCatV1.10B1784,2013-11-06 20:41:00,
2013-11-06 15:47:00,58.9,43.7,30.17,WSW,257,4.0,8.0,57,0.00,,,0.00,WeatherCatV1.10B1784,2013-11-06 20:47:00,
2013-11-06 15:52:00,58.7,43.5,30.17,West,267,4.0,9.0,57,0.00,,,0.00,WeatherCatV1.10B1784,2013-11-06 20:52:00,
2013-11-06 15:57:00,58.4,43.7,30.17,SSW,213,6.0,6.0,58,0.00,,,0.00,WeatherCatV1.10B1784,2013-11-06 20:57:00,
2013-11-06 16:02:00,57.9,43.7,30.17,WSW,240,1.0,5.0,59,0.00,,,0.00,WeatherCatV1.10B1784,2013-11-06 21:02:00,
2013-11-06 16:06:00,57.7,43.9,30.17,WSW,247,1.0,9.0,60,0.00,,,0.00,WeatherCatV1.10B1784,2013-11-06 21:06:00,
2013-11-06 16:11:00,57.5,43.7,30.17,SSE,148,0.0,4.0,60,0.00,,,0.00,WeatherCatV1.10B1784,2013-11-06 21:11:00,
2013-11-06 16:17:00,57.3,43.5,30.17,South,170,0.0,2.0,60,0.00,,,0.00,WeatherCatV1.10B1784,2013-11-06 21:17:00,
2013-11-06 16:22:00,57.1,43.8,30.17,SSE,147,2.0,5.0,61,0.00,,,0.00,WeatherCatV1.10B1784,2013-11-06 21:22:00,
2013-11-06 16:27:00,56.9,43.6,30.16,SSE,165,0.0,3.0,61,0.00,,,0.00,WeatherCatV1.10B1784,2013-11-06 21:27:00,
2013-11-06 16:32:00,56.5,43.6,30.16,WSW,241,3.0,4.0,62,0.00,,,0.00,WeatherCatV1.10B1784,2013-11-06 21:32:00,
2013-11-06 16:37:00,56.3,43.4,30.16,WSW,243,2.0,4.0,62,0.00,,,0.00,WeatherCatV1.10B1784,2013-11-06 21:37:00,
2013-11-06 16:42:00,56.2,43.8,30.16,WSW,243,3.0,3.0,63,0.00,,,0.00,WeatherCatV1.10B1784,2013-11-06 21:42:00,
2013-11-06 16:47:00,55.7,43.7,30.17,WSW,243,0.0,5.0,64,0.00,,,0.00,WeatherCatV1.10B1784,2013-11-06 21:47:00,
2013-11-06 16:52:00,55.3,43.3,30.17,SW,234,0.0,0.0,64,0.00,,,0.00,WeatherCatV1.10B1784,2013-11-06 21:52:00,
2013-11-06 16:57:00,55.0,43.5,30.16,SW,235,0.0,1.0,65,0.00,,,0.00,WeatherCatV1.10B1784,2013-11-06 21:57:00,
2013-11-06 17:02:00,54.7,43.6,30.16,SW,235,0.0,2.0,66,0.00,,,0.00,WeatherCatV1.10B1784,2013-11-06 22:02:00,
2013-11-06 17:07:00,54.4,43.3,30.16,SSE,165,0.0,1.0,66,0.00,,,0.00,WeatherCatV1.10B1784,2013-11-06 22:07:00,
2013-11-06 17:12:00,54.1,43.4,30.16,SSE,165,0.0,2.0,67,0.00,,,0.00,WeatherCatV1.10B1784,2013-11-06 22:12:00,
2013-11-06 17:17:00,53.9,43.2,30.16,SSE,165,0.0,0.0,67,0.00,,,0.00,WeatherCatV1.10B1784,2013-11-06 22:17:00,
2013-11-06 17:22:00,53.6,43.3,30.15,SSE,165,2.0,2.0,68,0.00,,,0.00,WeatherCatV1.10B1784,2013-11-06 22:22:00,
2013-11-06 17:27:00,53.7,43.4,30.15,WSW,242,1.0,4.0,68,0.00,,,0.00,WeatherCatV1.10B1784,2013-11-06 22:27:00,
2013-11-06 17:32:00,53.5,43.2,30.15,SSW,198,0.0,1.0,68,0.00,,,0.00,WeatherCatV1.10B1784,2013-11-06 22:32:00,
2013-11-06 17:37:00,53.5,43.6,30.15,SW,231,3.0,5.0,69,0.00,,,0.00,WeatherCatV1.10B1784,2013-11-06 22:37:00,
2013-11-06 17:42:00,53.5,43.6,30.15,SSE,156,1.0,7.0,69,0.00,,,0.00,WeatherCatV1.10B1784,2013-11-06 22:42:00,
2013-11-06 17:47:00,53.5,43.6,30.15,SSW,203,0.0,1.0,69,0.00,,,0.00,WeatherCatV1.10B1784,2013-11-06 22:47:00,
2013-11-06 17:52:00,53.5,43.6,30.14,WSW,241,0.0,5.0,69,0.00,,,0.00,WeatherCatV1.10B1784,2013-11-06 22:52:00,
2013-11-06 17:57:00,53.6,43.7,30.14,WSW,249,5.0,5.0,69,0.00,,,0.00,WeatherCatV1.10B1784,2013-11-06 22:57:00,
2013-11-06 18:02:00,53.5,43.6,30.14,WSW,244,3.0,4.0,69,0.00,,,0.00,WeatherCatV1.10B1784,2013-11-06 23:02:00,
2013-11-06 18:07:00,53.4,43.9,30.13,WSW,242,1.0,1.0,70,0.00,,,0.00,WeatherCatV1.10B1784,2013-11-06 23:07:00,
2013-11-06 18:12:00,53.2,43.7,30.13,SSE,165,3.0,4.0,70,0.00,,,0.00,WeatherCatV1.10B1784,2013-11-06 23:12:00,
2013-11-06 18:17:00,53.1,43.6,30.13,WSW,243,1.0,3.0,70,0.00,,,0.00,WeatherCatV1.10B1784,2013-11-06 23:17:00,
2013-11-06 18:22:00,53.1,43.6,30.13,WSW,257,0.0,5.0,70,0.00,,,0.00,WeatherCatV1.10B1784,2013-11-06 23:22:00,
2013-11-06 18:27:00,53.0,43.5,30.13,WSW,242,2.0,3.0,70,0.00,,,0.00,WeatherCatV1.10B1784,2013-11-06 23:27:00,
2013-11-06 18:32:00,52.9,43.4,30.13,WSW,241,0.0,4.0,70,0.00,,,0.00,WeatherCatV1.10B1784,2013-11-06 23:32:00,
2013-11-06 18:37:00,52.8,43.7,30.13,WSW,257,2.0,5.0,71,0.00,,,0.00,WeatherCatV1.10B1784,2013-11-06 23:37:00,
2013-11-06 18:42:00,52.8,43.7,30.13,WSW,244,2.0,8.0,71,0.00,,,0.00,WeatherCatV1.10B1784,2013-11-06 23:42:00,
2013-11-06 18:47:00,52.8,43.7,30.12,SSE,150,5.0,7.0,71,0.00,,,0.00,WeatherCatV1.10B1784,2013-11-06 23:47:00,
2013-11-06 18:52:00,52.8,43.7,30.12,South,182,2.0,8.0,71,0.00,,,0.00,WeatherCatV1.10B1784,2013-11-06 23:52:00,
2013-11-06 18:57:00,52.7,43.6,30.12,WSW,249,1.0,2.0,71,0.00,,,0.00,WeatherCatV1.10B1784,2013-11-06 23:57:00,
2013-11-06 19:02:00,52.7,43.6,30.11,WSW,250,1.0,7.0,71,0.00,,,0.00,WeatherCatV1.10B1784,2013-11-07 00:02:00,
2013-11-06 19:07:00,52.8,43.7,30.11,WSW,247,0.0,4.0,71,0.00,,,0.00,WeatherCatV1.10B1784,2013-11-07 00:07:00,
2013-11-06 19:12:00,52.8,43.7,30.11,SSE,151,2.0,5.0,71,0.00,,,0.00,WeatherCatV1.10B1784,2013-11-07 00:12:00,
2013-11-06 19:17:00,52.6,43.8,30.11,WSW,240,5.0,6.0,72,0.00,,,0.00,WeatherCatV1.10B1784,2013-11-07 00:17:00,
2013-11-06 19:22:00,52.5,43.7,30.10,WSW,257,0.0,4.0,72,0.00,,,0.00,WeatherCatV1.10B1784,2013-11-07 00:22:00,
2013-11-06 19:27:00,52.4,44.0,30.10,South,183,2.0,5.0,73,0.00,,,0.00,WeatherCatV1.10B1784,2013-11-07 00:27:00,
2013-11-06 19:32:00,52.4,44.0,30.09,SW,235,0.0,3.0,73,0.00,,,0.00,WeatherCatV1.10B1784,2013-11-07 00:32:00,
2013-11-06 19:37:00,52.3,43.9,30.09,SW,236,2.0,3.0,73,0.00,,,0.00,WeatherCatV1.10B1784,2013-11-07 00:37:00,
2013-11-06 19:42:00,52.2,44.2,30.10,WSW,250,0.0,6.0,74,0.00,,,0.00,WeatherCatV1.10B1784,2013-11-07 00:42:00,
2013-11-06 19:47:00,52.2,44.5,30.09,WSW,242,0.0,4.0,75,0.00,,,0.00,WeatherCatV1.10B1784,2013-11-07 00:47:00,
2013-11-06 19:52:00,52.1,44.4,30.09,WSW,246,0.0,5.0,75,0.00,,,0.00,WeatherCatV1.10B1784,2013-11-07 00:52:00,
2013-11-06 19:57:00,52.1,44.8,30.09,WSW,246,1.0,1.0,76,0.00,,,0.00,WeatherCatV1.10B1784,2013-11-07 00:57:00,
2013-11-06 20:02:00,52.0,44.7,30.09,WSW,246,0.0,2.0,76,0.00,,,0.00,WeatherCatV1.10B1784,2013-11-07 01:02:00,
2013-11-06 20:07:00,51.9,44.9,30.08,WSW,240,0.0,3.0,77,0.00,,,0.00,WeatherCatV1.10B1784,2013-11-07 01:07:00,
2013-11-06 20:12:00,51.9,44.9,30.08,WSW,240,0.0,4.0,77,0.00,,,0.00,WeatherCatV1.10B1784,2013-11-07 01:12:00,
2013-11-06 20:17:00,51.9,45.3,30.08,WSW,240,0.0,1.0,78,0.00,,,0.00,WeatherCatV1.10B1784,2013-11-07 01:17:00,
2013-11-06 20:22:00,51.8,45.2,30.08,WSW,240,1.0,2.0,78,0.00,,,0.00,WeatherCatV1.10B1784,2013-11-07 01:22:00,
2013-11-06 20:27:00,51.7,45.1,30.08,WSW,240,0.0,0.0,78,0.00,,,0.00,WeatherCatV1.10B1784,2013-11-07 01:27:00,
2013-11-06 20:32:00,51.6,45.3,30.08,WSW,250,1.0,5.0,79,0.00,,,0.00,WeatherCatV1.10B1784,2013-11-07 01:32:00,
2013-11-06 20:37:00,51.6,45.3,30.07,WSW,248,0.0,4.0,79,0.00,,,0.00,WeatherCatV1.10B1784,2013-11-07 01:37:00,
2013-11-06 20:42:00,51.4,45.4,30.07,SSE,159,0.0,4.0,80,0.00,,,0.00,WeatherCatV1.10B1784,2013-11-07 01:42:00,
2013-11-06 20:47:00,51.4,45.8,30.07,SSE,158,0.0,2.0,81,0.00,,,0.00,WeatherCatV1.10B1784,2013-11-07 01:47:00,
2013-11-06 20:52:00,51.4,46.1,30.07,SW,225,2.0,2.0,82,0.00,,,0.00,WeatherCatV1.10B1784,2013-11-07 01:52:00,
2013-11-06 20:57:00,51.5,46.2,30.07,SSE,167,0.0,6.0,82,0.00,,,0.00,WeatherCatV1.10B1784,2013-11-07 01:57:00,
2013-11-06 21:02:00,51.7,46.7,30.07,WSW,241,2.0,7.0,83,0.00,,,0.00,WeatherCatV1.10B1784,2013-11-07 02:02:00,
2013-11-06 21:07:00,51.8,46.8,30.06,WSW,257,2.0,5.0,83,0.00,,,0.00,WeatherCatV1.10B1784,2013-11-07 02:07:00,
2013-11-06 21:12:00,51.9,46.9,30.06,WSW,240,2.0,7.0,83,0.00,,,0.00,WeatherCatV1.10B1784,2013-11-07 02:12:00,
2013-11-06 21:17:00,52.0,47.0,30.06,South,180,5.0,10.0,83,0.00,,,0.00,WeatherCatV1.10B1784,2013-11-07 02:17:00,
2013-11-06 21:22:00,52.2,47.2,30.06,SW,233,4.0,6.0,83,0.00,,,0.00,WeatherCatV1.10B1784,2013-11-07 02:22:00,
2013-11-06 21:27:00,52.1,47.1,30.05,WSW,257,9.0,13.0,83,0.00,,,0.00,WeatherCatV1.10B1784,2013-11-07 02:27:00,
2013-11-06 21:32:00,52.2,47.2,30.05,SW,227,0.0,11.0,83,0.00,,,0.00,WeatherCatV1.10B1784,2013-11-07 02:32:00,
2013-11-06 21:37:00,52.2,47.2,30.05,SW,234,5.0,12.0,83,0.00,,,0.00,WeatherCatV1.10B1784,2013-11-07 02:37:00,
2013-11-06 21:42:00,52.2,47.2,30.05,WSW,257,9.0,9.0,83,0.00,,,0.00,WeatherCatV1.10B1784,2013-11-07 02:42:00,
2013-11-06 21:47:00,52.3,47.3,30.05,WSW,244,7.0,11.0,83,0.00,,,0.00,WeatherCatV1.10B1784,2013-11-07 02:47:00,
2013-11-06 21:52:00,52.3,47.3,30.05,WSW,244,5.0,12.0,83,0.00,,,0.00,WeatherCatV1.10B1784,2013-11-07 02:52:00,
2013-11-06 21:57:00,52.3,47.3,30.05,SW,226,8.0,8.0,83,0.00,,,0.00,WeatherCatV1.10B1784,2013-11-07 02:57:00,
2013-11-06 22:02:00,52.2,47.2,30.04,WSW,242,4.0,12.0,83,0.00,,,0.00,WeatherCatV1.10B1784,2013-11-07 03:02:00,
2013-11-06 22:07:00,52.2,47.2,30.04,WSW,242,3.0,8.0,83,0.00,,,0.00,WeatherCatV1.10B1784,2013-11-07 03:07:00,
2013-11-06 22:12:00,52.2,47.2,30.03,WSW,242,3.0,13.0,83,0.00,,,0.00,WeatherCatV1.10B1784,2013-11-07 03:12:00,
2013-11-06 22:17:00,52.1,47.1,30.03,WSW,248,6.0,6.0,83,0.00,,,0.00,WeatherCatV1.10B1784,2013-11-07 03:17:00,
2013-11-06 22:22:00,52.1,47.1,30.02,SSE,156,7.0,10.0,83,0.00,,,0.00,WeatherCatV1.10B1784,2013-11-07 03:22:00,
2013-11-06 22:27:00,52.2,47.2,30.03,SW,214,0.0,10.0,83,0.00,,,0.00,WeatherCatV1.10B1784,2013-11-07 03:27:00,
2013-11-06 22:32:00,52.2,47.2,30.02,WSW,253,1.0,10.0,83,0.00,,,0.00,WeatherCatV1.10B1784,2013-11-07 03:32:00,
2013-11-06 22:37:00,52.2,46.9,30.02,WSW,244,0.0,10.0,82,0.00,,,0.00,WeatherCatV1.10B1784,2013-11-07 03:37:00,
2013-11-06 22:42:00,52.2,46.9,30.02,SW,226,1.0,10.0,82,0.00,,,0.00,WeatherCatV1.10B1784,2013-11-07 03:42:00,
2013-11-06 22:47:00,52.3,47.0,30.01,SW,215,2.0,11.0,82,0.00,,,0.00,WeatherCatV1.10B1784,2013-11-07 03:47:00,
2013-11-06 22:52:00,52.4,46.7,30.01,SW,229,1.0,10.0,81,0.00,,,0.00,WeatherCatV1.10B1784,2013-11-07 03:52:00,
2013-11-06 22:57:00,52.4,46.7,30.01,WSW,243,3.0,7.0,81,0.00,,,0.00,WeatherCatV1.10B1784,2013-11-07 03:57:00,
2013-11-06 23:02:00,52.4,46.7,30.01,WSW,244,2.0,13.0,81,0.00,,,0.00,WeatherCatV1.10B1784,2013-11-07 04:02:00,
2013-11-06 23:07:00,52.4,46.4,30.01,SSE,149,5.0,5.0,80,0.00,,,0.00,WeatherCatV1.10B1784,2013-11-07 04:07:00,
2013-11-06 23:12:00,52.3,46.6,30.01,SSE,161,0.0,10.0,81,0.00,,,0.00,WeatherCatV1.10B1784,2013-11-07 04:12:00,
2013-11-06 23:17:00,52.3,46.6,30.01,SW,236,4.0,12.0,81,0.00,,,0.00,WeatherCatV1.10B1784,2013-11-07 04:17:00,
2013-11-06 23:22:00,52.3,46.6,30.00,West,271,4.0,4.0,81,0.00,,,0.00,WeatherCatV1.10B1784,2013-11-07 04:22:00,
2013-11-06 23:27:00,52.3,46.6,30.00,WSW,244,6.0,10.0,81,0.00,,,0.00,WeatherCatV1.10B1784,2013-11-07 04:27:00,
2013-11-06 23:32:00,52.2,46.5,30.00,WSW,244,2.0,11.0,81,0.00,,,0.00,WeatherCatV1.10B1784,2013-11-07 04:32:00,
2013-11-06 23:37:00,52.2,46.5,30.00,WSW,243,1.0,8.0,81,0.00,,,0.00,WeatherCatV1.10B1784,2013-11-07 04:37:00,
2013-11-06 23:42:00,52.2,46.9,30.00,SW,227,7.0,13.0,82,0.00,,,0.00,WeatherCatV1.10B1784,2013-11-07 04:42:00,
2013-11-06 23:47:00,52.1,46.8,30.00,SSW,204,12.0,12.0,82,0.00,,,0.00,WeatherCatV1.10B1784,2013-11-07 04:47:00,
2013-11-06 23:52:00,52.1,46.8,30.00,South,188,3.0,7.0,82,0.00,,,0.00,WeatherCatV1.10B1784,2013-11-07 04:52:00,
2013-11-06 23:57:00,52.1,46.8,30.00,WSW,250,4.0,14.0,82,0.00,,,0.00,WeatherCatV1.10B1784,2013-11-07 04:57:00,